Back to catalog

IRIDIUM 117

AliveCommunicationsPO
NORAD 42808·PAYLOAD·🇺🇸 United States

Launched Jun 25, 2017 from Vandenberg Space Force Base

Loading…

Next Passes (next 24 hours)

TLE

FreshSource: CelesTrak SupGP

Epoch: Sep 14, 2026, 08:59 UTC

1 42808C 17039F   26257.37465278 -.00002893  00000+0 -10345-2 0  2571
2 42808  86.3976 316.3323 0002328  94.4104 355.7414 14.34219080    13

Track IRIDIUM 117 in real time with AllMySat

Download on the App Store